| time (UTC) | temp C | wind direction | speed KPH | gust KPH | rain 1hr cm | rain 24hr cm | rain mn cm | humidity % | barometer mb |
| 20260510220322 | 20 | 42 | 17.7 | 19.3 | 0.00 | 0.00 | 0.00 | 38 | 1019.9 |
| 20260510215818 | 20 | 12 | 4.8 | 11.3 | 0.00 | 0.00 | 0.00 | 40 | 1020.1 |
| 20260510215316 | 20 | 32 | 9.7 | 9.7 | 0.00 | 0.00 | 0.00 | 41 | 1020.0 |
| 20260510214813 | 21 | 0 | 3.2 | 9.7 | 0.00 | 0.00 | 0.00 | 39 | 1020.0 |
| 20260510214310 | 20 | 3 | 8.0 | 16.1 | 0.00 | 0.00 | 0.00 | 39 | 1020.1 |
| 20260510213807 | 21 | 54 | 9.7 | 9.7 | 0.00 | 0.00 | 0.00 | 38 | 1020.1 |
| 20260510213304 | 20 | 61 | 4.8 | 9.7 | 0.00 | 0.00 | 0.00 | 39 | 1020.2 |
| 20260510212800 | 20 | 286 | 0.0 | 4.8 | 0.00 | 0.00 | 0.00 | 38 | 1020.2 |
| 20260510212258 | 20 | 45 | 3.2 | 11.3 | 0.00 | 0.00 | 0.00 | 37 | 1020.3 |
| 20260510211754 | 21 | 304 | 3.2 | 14.5 | 0.00 | 0.00 | 0.00 | 38 | 1020.3 |
| 20260510211249 | 21 | 316 | 3.2 | 9.7 | 0.00 | 0.00 | 0.00 | 40 | 1020.2 |
| 20260510210745 | 20 | 48 | 11.3 | 16.1 | 0.00 | 0.00 | 0.00 | 40 | 1020.2 |
| 20260510210240 | 20 | 40 | 9.7 | 17.7 | 0.00 | 0.00 | 0.00 | 39 | 1020.5 |
| 20260510205735 | 20 | 43 | 4.8 | 12.9 | 0.00 | 0.00 | 0.00 | 39 | 1020.5 |
| 20260510205230 | 20 | 78 | 4.8 | 14.5 | 0.00 | 0.00 | 0.00 | 38 | 1020.1 |
| 20260510204727 | 20 | 1 | 4.8 | 16.1 | 0.00 | 0.00 | 0.00 | 44 | 1020.3 |
| 20260510204224 | 20 | 37 | 8.0 | 16.1 | 0.00 | 0.00 | 0.00 | 42 | 1020.2 |
| 20260510203720 | 20 | 25 | 6.4 | 11.3 | 0.00 | 0.00 | 0.00 | 41 | 1020.3 |
| 20260510203218 | 21 | 49 | 4.8 | 8.0 | 0.00 | 0.00 | 0.00 | 40 | 1020.3 |
| 20260510202718 | 20 | 39 | 11.3 | 19.3 | 0.00 | 0.00 | 0.00 | 41 | 1020.1 |
| 20260510202213 | 20 | 290 | 0.0 | 8.0 | 0.00 | 0.00 | 0.00 | 40 | 1020.1 |
| 20260510201711 | 20 | 34 | 4.8 | 11.3 | 0.00 | 0.00 | 0.00 | 40 | 1020.2 |
| 20260510201207 | 21 | 38 | 6.4 | 8.0 | 0.00 | 0.00 | 0.00 | 45 | 1020.2 |
| 20260510200703 | 20 | 20 | 8.0 | 12.9 | 0.00 | 0.00 | 0.00 | 43 | 1020.2 |
| 20260510200201 | 20 | 23 | 0.0 | 11.3 | 0.00 | 0.00 | 0.00 | 40 | 1020.3 |
| 20260510195658 | 20 | 79 | 3.2 | 9.7 | 0.00 | 0.00 | 0.00 | 46 | 1020.2 |
| 20260510195155 | 20 | 1 | 3.2 | 8.0 | 0.00 | 0.00 | 0.00 | 43 | 1020.3 |
| 20260510194654 | 20 | 48 | 4.8 | 8.0 | 0.00 | 0.00 | 0.00 | 43 | 1020.2 |
| 20260510194150 | 20 | 77 | 6.4 | 9.7 | 0.00 | 0.00 | 0.00 | 45 | 1020.2 |
| 20260510193646 | 20 | 358 | 4.8 | 11.3 | 0.00 | 0.00 | 0.00 | 43 | 1020.4 |
| 20260510193141 | 20 | 54 | 3.2 | 17.7 | 0.00 | 0.00 | 0.00 | 42 | 1020.3 |
| 20260510192637 | 20 | 356 | 1.6 | 9.7 | 0.00 | 0.00 | 0.00 | 42 | 1020.6 |
| 20260510192132 | 20 | 48 | 4.8 | 12.9 | 0.00 | 0.00 | 0.00 | 46 | 1020.4 |
| 20260510191629 | 19 | 7 | 3.2 | 8.0 | 0.00 | 0.00 | 0.00 | 44 | 1020.4 |
| 20260510191125 | 18 | 21 | 4.8 | 12.9 | 0.00 | 0.00 | 0.00 | 44 | 1020.4 |
| 20260510190618 | 18 | 53 | 11.3 | 11.3 | 0.00 | 0.00 | 0.00 | 42 | 1020.3 |
| 20260510190115 | 18 | 42 | 8.0 | 11.3 | 0.00 | 0.00 | 0.00 | 42 | 1020.3 |
| 20260510185611 | 18 | 43 | 4.8 | 6.4 | 0.00 | 0.00 | 0.00 | 40 | 1020.2 |
| 20260510185109 | 18 | 46 | 11.3 | 12.9 | 0.00 | 0.00 | 0.00 | 41 | 1020.3 |
| 20260510184606 | 18 | 18 | 9.7 | 12.9 | 0.00 | 0.00 | 0.00 | 40 | 1020.3 |
| 20260510184102 | 20 | 36 | 11.3 | 19.3 | 0.00 | 0.00 | 0.00 | 39 | 1020.2 |
| 20260510183556 | 20 | 97 | 1.6 | 9.7 | 0.00 | 0.00 | 0.00 | 44 | 1020.1 |
| 20260510183052 | 19 | 26 | 11.3 | 16.1 | 0.00 | 0.00 | 0.00 | 43 | 1020.2 |
| 20260510182549 | 19 | 33 | 8.0 | 11.3 | 0.00 | 0.00 | 0.00 | 43 | 1020.0 |
| 20260510182044 | 20 | 39 | 12.9 | 17.7 | 0.00 | 0.00 | 0.00 | 43 | 1020.1 |
| 20260510181542 | 19 | 130 | 0.0 | 16.1 | 0.00 | 0.00 | 0.00 | 44 | 1020.0 |
| 20260510181038 | 18 | 323 | 4.8 | 12.9 | 0.00 | 0.00 | 0.00 | 42 | 1019.8 |
| 20260510180535 | 18 | 57 | 4.8 | 17.7 | 0.00 | 0.00 | 0.00 | 41 | 1020.0 |
| 20260510180033 | 18 | 45 | 14.5 | 14.5 | 0.00 | 0.00 | 0.00 | 48 | 1020.0 |
| 20260510175527 | 18 | 51 | 9.7 | 11.3 | 0.00 | 0.00 | 0.00 | 48 | 1020.0 |
| 20260510175024 | 17 | 35 | 12.9 | 16.1 | 0.00 | 0.00 | 0.00 | 46 | 1020.2 |
| 20260510174522 | 17 | 37 | 16.1 | 17.7 | 0.00 | 0.00 | 0.00 | 46 | 1020.4 |
| 20260510174019 | 17 | 22 | 9.7 | 14.5 | 0.00 | 0.00 | 0.00 | 45 | 1020.2 |
| 20260510173514 | 17 | 16 | 4.8 | 12.9 | 0.00 | 0.00 | 0.00 | 45 | 1020.2 |
| 20260510173011 | 17 | 40 | 4.8 | 17.7 | 0.00 | 0.00 | 0.00 | 45 | 1020.3 |
| 20260510172507 | 17 | 54 | 14.5 | 19.3 | 0.00 | 0.00 | 0.00 | 43 | 1020.5 |
| 20260510172004 | 17 | 48 | 9.7 | 16.1 | 0.00 | 0.00 | 0.00 | 46 | 1020.3 |
| 20260510171500 | 18 | 55 | 4.8 | 8.0 | 0.00 | 0.00 | 0.00 | 45 | 1020.5 |
| 20260510170957 | 18 | 31 | 12.9 | 16.1 | 0.00 | 0.00 | 0.00 | 45 | 1020.5 |
| 20260510170454 | 18 | 50 | 9.7 | 14.5 | 0.00 | 0.00 | 0.00 | 55 | 1020.6 |
| 20260510165949 | 17 | 301 | 6.4 | 11.3 | 0.00 | 0.00 | 0.00 | 56 | 1020.6 |
| 20260510165446 | 17 | 52 | 9.7 | 9.7 | 0.00 | 0.00 | 0.00 | 58 | 1020.5 |
| 20260510164943 | 17 | 33 | 6.4 | 9.7 | 0.00 | 0.00 | 0.00 | 57 | 1020.5 |
| 20260510164440 | 16 | 48 | 11.3 | 11.3 | 0.00 | 0.00 | 0.00 | 57 | 1020.5 |
| 20260510163934 | 16 | 51 | 9.7 | 11.3 | 0.00 | 0.00 | 0.00 | 58 | 1020.6 |
| 20260510163431 | 16 | 49 | 8.0 | 12.9 | 0.00 | 0.00 | 0.00 | 57 | 1020.7 |
| 20260510162925 | 16 | 6 | 4.8 | 14.5 | 0.00 | 0.00 | 0.00 | 57 | 1020.4 |
| 20260510162423 | 17 | 16 | 9.7 | 9.7 | 0.00 | 0.00 | 0.00 | 55 | 1020.5 |
| 20260510161919 | 17 | 26 | 1.6 | 11.3 | 0.00 | 0.00 | 0.00 | 57 | 1020.9 |
| 20260510161415 | 16 | 41 | 4.8 | 9.7 | 0.00 | 0.00 | 0.00 | 60 | 1020.7 |
| 20260510160912 | 17 | 11 | 6.4 | 9.7 | 0.00 | 0.00 | 0.00 | 56 | 1020.7 |
| 20260510160409 | 17 | 16 | 12.9 | 17.7 | 0.00 | 0.00 | 0.00 | 55 | 1020.7 |
| 20260510155908 | 17 | 25 | 4.8 | 11.3 | 0.00 | 0.00 | 0.00 | 58 | 1020.9 |
| 20260510155405 | 16 | 3 | 6.4 | 14.5 | 0.00 | 0.00 | 0.00 | 60 | 1020.6 |
| 20260510154901 | 16 | 70 | 3.2 | 8.0 | 0.00 | 0.00 | 0.00 | 63 | 1020.9 |
| 20260510154358 | 16 | 43 | 3.2 | 6.4 | 0.00 | 0.00 | 0.00 | 61 | 1020.9 |
| 20260510153851 | 16 | 4 | 3.2 | 9.7 | 0.00 | 0.00 | 0.00 | 63 | 1020.6 |
| 20260510153347 | 16 | 21 | 4.8 | 9.7 | 0.00 | 0.00 | 0.00 | 60 | 1020.5 |
| 20260510152844 | 16 | 357 | 4.8 | 8.0 | 0.00 | 0.00 | 0.00 | 60 | 1020.6 |
| 20260510152342 | 16 | 336 | 1.6 | 9.7 | 0.00 | 0.00 | 0.00 | 59 | 1020.2 |
| 20260510151838 | 16 | 348 | 8.0 | 11.3 | 0.00 | 0.00 | 0.00 | 60 | 1020.2 |
| 20260510151336 | 16 | 27 | 3.2 | 9.7 | 0.00 | 0.00 | 0.00 | 60 | 1020.0 |
| 20260510150831 | 16 | 37 | 1.6 | 11.3 | 0.00 | 0.00 | 0.00 | 60 | 1019.9 |
| 20260510150327 | 15 | 17 | 8.0 | 16.1 | 0.00 | 0.00 | 0.00 | 61 | 1020.1 |
| 20260510145824 | 15 | 52 | 9.7 | 19.3 | 0.00 | 0.00 | 0.00 | 61 | 1020.0 |
| 20260510145320 | 15 | 55 | 6.4 | 16.1 | 0.00 | 0.00 | 0.00 | 61 | 1020.0 |
| 20260510144817 | 16 | 56 | 6.4 | 9.7 | 0.00 | 0.00 | 0.00 | 61 | 1020.1 |
| 20260510144314 | 16 | 46 | 11.3 | 12.9 | 0.00 | 0.00 | 0.00 | 58 | 1020.0 |
| 20260510143813 | 16 | 10 | 4.8 | 9.7 | 0.00 | 0.00 | 0.00 | 60 | 1019.8 |
| 20260510143309 | 16 | 33 | 6.4 | 9.7 | 0.00 | 0.00 | 0.00 | 59 | 1019.5 |
| 20260510142807 | 16 | 28 | 8.0 | 11.3 | 0.00 | 0.00 | 0.00 | 60 | 1019.4 |
| 20260510142306 | 16 | 52 | 3.2 | 9.7 | 0.00 | 0.00 | 0.00 | 60 | 1019.6 |
| 20260510141800 | 16 | 46 | 4.8 | 14.5 | 0.00 | 0.00 | 0.00 | 59 | 1019.3 |
| 20260510141258 | 16 | 61 | 11.3 | 14.5 | 0.00 | 0.00 | 0.00 | 60 | 1019.3 |
| 20260510140755 | 16 | 25 | 8.0 | 9.7 | 0.00 | 0.00 | 0.00 | 63 | 1019.2 |
| 20260510140250 | 15 | 44 | 9.7 | 14.5 | 0.00 | 0.00 | 0.00 | 62 | 1019.1 |
| 20260510135744 | 15 | 54 | 11.3 | 12.9 | 0.00 | 0.00 | 0.00 | 62 | 1019.2 |
| 20260510135240 | 15 | 43 | 9.7 | 11.3 | 0.00 | 0.00 | 0.00 | 65 | 1019.3 |
| 20260510134738 | 15 | 313 | 0.0 | 9.7 | 0.00 | 0.00 | 0.00 | 67 | 1019.1 |
| 20260510134235 | 14 | 47 | 6.4 | 11.3 | 0.00 | 0.00 | 0.00 | 64 | 1019.3 |
| 20260510133730 | 15 | 68 | 6.4 | 11.3 | 0.00 | 0.00 | 0.00 | 68 | 1019.2 |
| 20260510133226 | 14 | 34 | 8.0 | 16.1 | 0.00 | 0.00 | 0.00 | 67 | 1019.2 |
| 20260510132722 | 14 | 27 | 1.6 | 11.3 | 0.00 | 0.00 | 0.00 | 69 | 1019.3 |
| 20260510132220 | 14 | 52 | 9.7 | 9.7 | 0.00 | 0.00 | 0.00 | 69 | 1019.2 |
| 20260510131717 | 14 | 57 | 1.6 | 8.0 | 0.00 | 0.00 | 0.00 | 72 | 1019.1 |
| 20260510131215 | 13 | 16 | 4.8 | 9.7 | 0.00 | 0.00 | 0.00 | 71 | 1019.1 |
| 20260510130711 | 13 | 30 | 11.3 | 11.3 | 0.00 | 0.00 | 0.00 | 71 | 1019.0 |
| 20260510130208 | 13 | 52 | 4.8 | 11.3 | 0.00 | 0.00 | 0.00 | 73 | 1019.1 |
| 20260510125704 | 13 | 36 | 6.4 | 8.0 | 0.00 | 0.00 | 0.00 | 74 | 1018.8 |
| 20260510125201 | 13 | 9 | 4.8 | 9.7 | 0.00 | 0.00 | 0.00 | 77 | 1018.8 |
| 20260510124658 | 13 | 41 | 6.4 | 6.4 | 0.00 | 0.00 | 0.00 | 80 | 1018.7 |
| 20260510124155 | 13 | 92 | 3.2 | 6.4 | 0.00 | 0.00 | 0.00 | 82 | 1018.6 |
| 20260510123650 | 13 | 21 | 3.2 | 4.8 | 0.00 | 0.00 | 0.00 | 84 | 1018.3 |
| 20260510123146 | 13 | 64 | 4.8 | 4.8 | 0.00 | 0.00 | 0.00 | 85 | 1018.4 |
| 20260510122643 | 12 | 342 | 3.2 | 8.0 | 0.00 | 0.00 | 0.00 | 84 | 1018.1 |
| 20260510122139 | 12 | 9 | 4.8 | 4.8 | 0.00 | 0.00 | 0.00 | 86 | 1018.1 |
| 20260510121635 | 12 | 10 | 6.4 | 6.4 | 0.00 | 0.00 | 0.00 | 86 | 1018.2 |
| 20260510121132 | 12 | 32 | 6.4 | 8.0 | 0.00 | 0.00 | 0.00 | 86 | 1018.3 |
| 20260510120630 | 12 | 31 | 4.8 | 6.4 | 0.00 | 0.00 | 0.00 | 87 | 1018.1 |
| 20260510120126 | 12 | 2 | 6.4 | 8.0 | 0.00 | 0.00 | 0.00 | 87 | 1018.1 |
| 20260510115622 | 12 | 35 | 3.2 | 4.8 | 0.00 | 0.00 | 0.00 | 88 | 1018.1 |
| 20260510115120 | 12 | 30 | 3.2 | 3.2 | 0.00 | 0.00 | 0.00 | 90 | 1017.8 |
| 20260510114615 | 12 | 12 | 1.6 | 3.2 | 0.00 | 0.00 | 0.00 | 90 | 1017.7 |
| 20260510114112 | 12 | 23 | 1.6 | 6.4 | 0.00 | 0.00 | 0.00 | 92 | 1017.4 |
| 20260510113608 | 12 | 10 | 3.2 | 3.2 | 0.00 | 0.00 | 0.00 | 93 | 1017.6 |
| 20260510113105 | 12 | 290 | 4.8 | 4.8 | 0.00 | 0.00 | 0.00 | 95 | 1017.3 |
| 20260510112602 | 12 | 17 | 4.8 | 4.8 | 0.00 | 0.00 | 0.00 | 95 | 1017.0 |
| 20260510112058 | 12 | 32 | 3.2 | 6.4 | 0.00 | 0.00 | 0.00 | 96 | 1016.9 |
| 20260510111554 | 12 | 41 | 3.2 | 3.2 | 0.00 | 0.00 | 0.00 | 97 | 1017.0 |
| 20260510111050 | 12 | 345 | 1.6 | 4.8 | 0.00 | 0.00 | 0.00 | 97 | 1017.0 |
| 20260510110546 | 12 | 17 | 1.6 | 4.8 | 0.00 | 0.00 | 0.00 | 98 | 1016.7 |
| 20260510110043 | 12 | 56 | 3.2 | 4.8 | 0.00 | 0.00 | 0.00 | 98 | 1016.7 |
| 20260510105538 | 12 | 9 | 1.6 | 4.8 | 0.00 | 0.00 | 0.00 | 99 | 1016.3 |
| 20260510105033 | 12 | 80 | 3.2 | 4.8 | 0.00 | 0.00 | 0.00 | 99 | 1016.3 |
| 20260510104530 | 12 | 257 | 0.0 | 6.4 | 0.00 | 0.00 | 0.00 | 99 | 1016.3 |
| 20260510104026 | 12 | 44 | 0.0 | 4.8 | 0.00 | 0.00 | 0.00 | 99 | 1016.4 |
| 20260510103524 | 12 | 287 | 3.2 | 4.8 | 0.00 | 0.00 | 0.00 | 99 | 1016.3 |
| 20260510103020 | 12 | 80 | 1.6 | 3.2 | 0.00 | 0.00 | 0.00 | 99 | 1015.9 |
| 20260510102516 | 12 | 22 | 0.0 | 3.2 | 0.00 | 0.00 | 0.00 | 99 | 1016.1 |
| 20260510102013 | 12 | 329 | 0.0 | 3.2 | 0.00 | 0.00 | 0.00 | 99 | 1015.9 |
| 20260510101510 | 12 | 35 | 3.2 | 4.8 | 0.00 | 0.00 | 0.00 | 99 | 1015.6 |
| 20260510101009 | 12 | 41 | 3.2 | 6.4 | 0.00 | 0.00 | 0.00 | 99 | 1015.6 |
| 20260510100504 | 12 | 22 | 3.2 | 4.8 | 0.00 | 0.00 | 0.00 | 99 | 1015.6 |
| 20260510100001 | 12 | 50 | 0.0 | 1.6 | 0.00 | 0.00 | 0.00 | 99 | 1015.6 |
| 20260510095456 | 12 | 101 | 1.6 | 1.6 | 0.00 | 0.00 | 0.00 | 99 | 1015.6 |
| 20260510094956 | 12 | 275 | 0.0 | 1.6 | 0.00 | 0.00 | 0.00 | 99 | 1015.7 |
| 20260510094451 | 12 | 36 | 1.6 | 3.2 | 0.00 | 0.00 | 0.00 | 99 | 1015.7 |
| 20260510093947 | 12 | 116 | 0.0 | 0.0 | 0.00 | 0.00 | 0.00 | 99 | 1015.5 |
| 20260510093442 | 13 | 113 | 0.0 | 1.6 | 0.00 | 0.00 | 0.00 | 99 | 1015.3 |
| 20260510092939 | 13 | 218 | 0.0 | 3.2 | 0.00 | 0.00 | 0.00 | 99 | 1015.3 |
| 20260510092437 | 13 | 129 | 0.0 | 0.0 | 0.00 | 0.00 | 0.00 | 99 | 1015.3 |
| 20260510091936 | 13 | 249 | 0.0 | 3.2 | 0.00 | 0.00 | 0.00 | 99 | 1015.3 |
| 20260510091433 | 13 | 214 | 1.6 | 3.2 | 0.00 | 0.00 | 0.00 | 99 | 1015.4 |
| 20260510090930 | 13 | 202 | 0.0 | 3.2 | 0.00 | 0.00 | 0.00 | 99 | 1015.1 |
| 20260510090427 | 13 | 232 | 0.0 | 3.2 | 0.00 | 0.00 | 0.00 | 99 | 1015.2 |
| 20260510085922 | 13 | 226 | 1.6 | 3.2 | 0.00 | 0.00 | 0.00 | 99 | 1014.8 |
| 20260510085418 | 13 | 249 | 0.0 | 3.2 | 0.00 | 0.00 | 0.00 | 99 | 1014.8 |
| 20260510084913 | 13 | 0 | 0.0 | 1.6 | 0.00 | 0.00 | 0.00 | 99 | 1014.6 |
| 20260510084411 | 13 | 235 | 0.0 | 0.0 | 0.00 | 0.00 | 0.00 | 99 | 1014.4 |
| 20260510083907 | 13 | 248 | 0.0 | 0.0 | 0.00 | 0.00 | 0.00 | 99 | 1014.5 |
| 20260510083404 | 13 | 207 | 0.0 | 3.2 | 0.00 | 0.00 | 0.00 | 99 | 1014.5 |
| 20260510082859 | 13 | 336 | 0.0 | 3.2 | 0.00 | 0.00 | 0.00 | 99 | 1014.4 |
| 20260510082357 | 13 | 54 | 1.6 | 1.6 | 0.00 | 0.00 | 0.00 | 99 | 1014.3 |
| 20260510081855 | 13 | 321 | 0.0 | 1.6 | 0.00 | 0.00 | 0.00 | 99 | 1014.3 |
| 20260510081352 | 13 | 322 | 0.0 | 1.6 | 0.00 | 0.00 | 0.00 | 99 | 1014.2 |
| 20260510080849 | 13 | 49 | 0.0 | 1.6 | 0.00 | 0.00 | 0.00 | 99 | 1013.9 |
| 20260510080342 | 13 | 29 | 0.0 | 0.0 | 0.00 | 0.00 | 0.00 | 99 | 1013.9 |
| 20260510075840 | 13 | 44 | 0.0 | 0.0 | 0.00 | 0.00 | 0.00 | 99 | 1014.0 |
| 20260510075337 | 14 | 218 | 0.0 | 0.0 | 0.00 | 0.00 | 0.00 | 99 | 1013.7 |
| 20260510074828 | 14 | 50 | 0.0 | 1.6 | 0.00 | 0.00 | 0.00 | 99 | 1013.4 |
| 20260510074325 | 14 | 309 | 0.0 | 3.2 | 0.00 | 0.00 | 0.00 | 99 | 1013.6 |
| 20260510073821 | 14 | 326 | 1.6 | 3.2 | 0.00 | 0.00 | 0.00 | 99 | 1013.5 |
| 20260510073318 | 14 | 50 | 0.0 | 1.6 | 0.00 | 0.00 | 0.00 | 99 | 1013.7 |
| 20260510072814 | 14 | 305 | 3.2 | 4.8 | 0.00 | 0.00 | 0.00 | 99 | 1013.6 |
| 20260510072310 | 15 | 70 | 3.2 | 4.8 | 0.00 | 0.00 | 0.00 | 99 | 1013.5 |
| 20260510071807 | 15 | 31 | 4.8 | 4.8 | 0.00 | 0.00 | 0.00 | 99 | 1013.3 |
| 20260510071303 | 15 | 39 | 0.0 | 4.8 | 0.00 | 0.00 | 0.00 | 99 | 1013.4 |
| 20260510070757 | 15 | 13 | 3.2 | 4.8 | 0.00 | 0.00 | 0.00 | 99 | 1013.1 |
| 20260510070253 | 15 | 32 | 0.0 | 4.8 | 0.00 | 0.00 | 0.00 | 99 | 1013.2 |
| 20260510065752 | 15 | 19 | 0.0 | 3.2 | 0.00 | 0.00 | 0.00 | 99 | 1013.4 |
| 20260510065250 | 15 | 23 | 3.2 | 4.8 | 0.00 | 0.00 | 0.00 | 99 | 1013.5 |
| 20260510064746 | 15 | 60 | 0.0 | 1.6 | 0.00 | 0.00 | 0.00 | 99 | 1013.6 |
| 20260510064244 | 15 | 39 | 3.2 | 3.2 | 0.00 | 0.00 | 0.00 | 99 | 1013.6 |
| 20260510063740 | 15 | 50 | 0.0 | 3.2 | 0.00 | 0.00 | 0.00 | 99 | 1013.4 |
| 20260510063236 | 15 | 43 | 3.2 | 4.8 | 0.00 | 0.00 | 0.00 | 99 | 1013.3 |
| 20260510062733 | 15 | 50 | 3.2 | 4.8 | 0.00 | 0.00 | 0.00 | 99 | 1013.3 |
| 20260510062229 | 15 | 36 | 4.8 | 6.4 | 0.00 | 0.00 | 0.00 | 99 | 1013.3 |
| 20260510061724 | 15 | 37 | 6.4 | 8.0 | 0.00 | 0.00 | 0.00 | 99 | 1013.3 |
| 20260510061222 | 15 | 15 | 6.4 | 9.7 | 0.00 | 0.00 | 0.00 | 99 | 1013.3 |
| 20260510060718 | 15 | 61 | 3.2 | 6.4 | 0.00 | 0.00 | 0.00 | 99 | 1013.5 |
| 20260510060214 | 15 | 301 | 1.6 | 8.0 | 0.00 | 0.00 | 0.00 | 99 | 1013.6 |
| 20260510055711 | 15 | 1 | 4.8 | 8.0 | 0.00 | 0.00 | 0.00 | 99 | 1013.3 |
| 20260510055210 | 15 | 34 | 8.0 | 12.9 | 0.00 | 0.00 | 0.00 | 99 | 1013.1 |
| 20260510054704 | 15 | 29 | 6.4 | 8.0 | 0.00 | 0.00 | 0.00 | 99 | 1013.0 |
| 20260510054200 | 15 | 28 | 4.8 | 11.3 | 0.00 | 0.00 | 0.00 | 99 | 1012.8 |
| 20260510053700 | 15 | 46 | 8.0 | 16.1 | 0.00 | 0.00 | 0.00 | 99 | 1012.8 |
| 20260510053157 | 15 | 45 | 14.5 | 16.1 | 0.00 | 0.00 | 0.00 | 99 | 1013.0 |
| 20260510052652 | 15 | 46 | 9.7 | 11.3 | 0.00 | 0.00 | 0.00 | 99 | 1012.8 |
| 20260510052149 | 15 | 50 | 8.0 | 14.5 | 0.00 | 0.00 | 0.00 | 99 | 1012.8 |
| 20260510051644 | 15 | 54 | 4.8 | 9.7 | 0.00 | 0.00 | 0.00 | 99 | 1012.7 |
| 20260510051141 | 15 | 346 | 3.2 | 11.3 | 0.00 | 0.00 | 0.00 | 99 | 1013.1 |
| 20260510050639 | 16 | 339 | 4.8 | 12.9 | 0.00 | 0.00 | 0.00 | 99 | 1012.7 |
| 20260510050136 | 16 | 3 | 11.3 | 16.1 | 0.05 | 0.00 | 0.00 | 99 | 1012.3 |
| 20260510045632 | 15 | 72 | 3.2 | 4.8 | 0.18 | 0.48 | 0.48 | 98 | 1011.7 |
| 20260510045129 | 15 | 146 | 1.6 | 9.7 | 0.13 | 0.46 | 0.46 | 99 | 1011.8 |
| 20260510044625 | 15 | 115 | 1.6 | 4.8 | 0.13 | 0.43 | 0.43 | 99 | 1012.1 |
| 20260510044123 | 15 | 175 | 3.2 | 6.4 | 0.13 | 0.43 | 0.43 | 99 | 1012.2 |
| 20260510043618 | 15 | 141 | 1.6 | 3.2 | 0.13 | 0.43 | 0.43 | 99 | 1012.0 |
| 20260510043115 | 15 | 108 | 1.6 | 3.2 | 0.23 | 0.41 | 0.41 | 99 | 1012.5 |
| 20260510042613 | 15 | 81 | 3.2 | 4.8 | 0.23 | 0.38 | 0.38 | 99 | 1012.3 |
| 20260510042108 | 15 | 68 | 1.6 | 4.8 | 0.23 | 0.36 | 0.36 | 99 | 1013.1 |
| 20260510041606 | 15 | 7 | 9.7 | 9.7 | 0.23 | 0.36 | 0.36 | 98 | 1013.2 |
| 20260510041103 | 15 | 44 | 3.2 | 9.7 | 0.13 | 0.33 | 0.33 | 98 | 1013.0 |
| 20260510040600 | 15 | 49 | 11.3 | 17.7 | 0.05 | 0.30 | 0.30 | 98 | 1012.6 |
| 20260510040056 | 15 | 39 | 9.7 | 17.7 | 0.05 | 0.30 | 0.30 | 98 | 1012.5 |
| 20260510035552 | 15 | 47 | 16.1 | 24.1 | 0.13 | 0.30 | 0.30 | 98 | 1012.4 |
| 20260510035052 | 15 | 72 | 8.0 | 20.9 | 0.13 | 0.28 | 0.28 | 98 | 1013.0 |
| 20260510034550 | 16 | 37 | 11.3 | 12.9 | 0.05 | 0.28 | 0.28 | 97 | 1013.2 |
| 20260510034047 | 16 | 65 | 6.4 | 12.9 | 0.13 | 0.28 | 0.28 | 97 | 1013.1 |
| 20260510033543 | 16 | 27 | 6.4 | 16.1 | 0.18 | 0.28 | 0.28 | 96 | 1013.2 |
| 20260510033041 | 16 | 8 | 14.5 | 16.1 | 0.13 | 0.25 | 0.25 | 95 | 1013.2 |
| 20260510032537 | 16 | 33 | 11.3 | 27.4 | 0.36 | 0.23 | 0.23 | 94 | 1013.1 |
| 20260510032033 | 16 | 336 | 14.5 | 24.1 | 0.89 | 0.20 | 0.20 | 94 | 1013.3 |
| 20260510031528 | 16 | 313 | 6.4 | 20.9 | 0.97 | 0.18 | 0.18 | 92 | 1013.2 |
| 20260510031024 | 17 | 302 | 9.7 | 25.7 | 0.30 | 0.05 | 0.05 | 88 | 1013.0 |
| 20260510030519 | 18 | 306 | 8.0 | 35.4 | 0.00 | 0.00 | 0.00 | 81 | 1012.4 |
| 20260510030017 | 22 | 262 | 6.4 | 9.7 | 0.00 | 0.00 | 0.00 | 61 | 1012.0 |
| 20260510025514 | 22 | 72 | 1.6 | 3.2 | 0.00 | 0.00 | 0.00 | 56 | 1010.7 |
| 20260510025012 | 22 | 129 | 1.6 | 3.2 | 0.00 | 0.00 | 0.00 | 55 | 1010.1 |
| 20260510024508 | 22 | 81 | 1.6 | 3.2 | 0.00 | 0.00 | 0.00 | 54 | 1010.4 |
| 20260510024004 | 22 | 93 | 1.6 | 3.2 | 0.00 | 0.00 | 0.00 | 54 | 1010.1 |
| 20260510023500 | 22 | 92 | 1.6 | 1.6 | 0.00 | 0.00 | 0.00 | 53 | 1010.1 |
| 20260510022957 | 22 | 92 | 3.2 | 3.2 | 0.00 | 0.00 | 0.00 | 54 | 1010.0 |
| 20260510022457 | 22 | 89 | 3.2 | 3.2 | 0.00 | 0.00 | 0.00 | 54 | 1009.8 |
| 20260510021956 | 21 | 89 | 0.0 | 3.2 | 0.00 | 0.00 | 0.00 | 57 | 1009.9 |
| 20260510021454 | 21 | 86 | 1.6 | 1.6 | 0.00 | 0.00 | 0.00 | 59 | 1009.8 |
| 20260510020950 | 21 | 88 | 3.2 | 3.2 | 0.00 | 0.00 | 0.00 | 57 | 1009.8 |
| 20260510020445 | 21 | 76 | 3.2 | 3.2 | 0.00 | 0.00 | 0.00 | 58 | 1009.6 |
| 20260510015941 | 21 | 72 | 1.6 | 3.2 | 0.00 | 0.00 | 0.00 | 57 | 1009.5 |
| 20260510015437 | 21 | 68 | 3.2 | 4.8 | 0.00 | 0.00 | 0.00 | 57 | 1009.4 |
| 20260510014932 | 21 | 70 | 3.2 | 3.2 | 0.00 | 0.00 | 0.00 | 58 | 1009.3 |
| 20260510014430 | 21 | 68 | 1.6 | 3.2 | 0.00 | 0.00 | 0.00 | 59 | 1009.2 |
| 20260510013926 | 21 | 67 | 3.2 | 3.2 | 0.00 | 0.00 | 0.00 | 59 | 1009.1 |
| 20260510013421 | 21 | 71 | 3.2 | 3.2 | 0.00 | 0.00 | 0.00 | 61 | 1009.1 |
| 20260510012917 | 21 | 69 | 3.2 | 3.2 | 0.00 | 0.00 | 0.00 | 59 | 1009.1 |
| 20260510012412 | 21 | 86 | 3.2 | 3.2 | 0.00 | 0.00 | 0.00 | 58 | 1008.9 |
| 20260510011907 | 22 | 65 | 3.2 | 4.8 | 0.00 | 0.00 | 0.00 | 57 | 1009.1 |
| 20260510011402 | 21 | 58 | 3.2 | 4.8 | 0.00 | 0.00 | 0.00 | 57 | 1009.0 |
| 20260510010858 | 22 | 89 | 0.0 | 3.2 | 0.00 | 0.00 | 0.00 | 56 | 1009.0 |
| 20260510010356 | 22 | 60 | 0.0 | 1.6 | 0.00 | 0.00 | 0.00 | 55 | 1008.9 |
| 20260510005853 | 22 | 114 | 0.0 | 1.6 | 0.00 | 0.00 | 0.00 | 53 | 1009.1 |
| 20260510005349 | 23 | 55 | 0.0 | 1.6 | 0.00 | 0.00 | 0.00 | 53 | 1008.9 |
| 20260510004846 | 23 | 117 | 0.0 | 1.6 | 0.00 | 0.00 | 0.00 | 51 | 1008.9 |
| 20260510004344 | 24 | 116 | 0.0 | 3.2 | 0.00 | 0.00 | 0.00 | 50 | 1008.7 |
| 20260510003841 | 25 | 74 | 0.0 | 1.6 | 0.00 | 0.00 | 0.00 | 49 | 1008.6 |
| 20260510003337 | 25 | 205 | 0.0 | 1.6 | 0.00 | 0.00 | 0.00 | 48 | 1008.7 |
| 20260510002836 | 26 | 202 | 1.6 | 3.2 | 0.00 | 0.00 | 0.00 | 47 | 1008.8 |
| 20260510002334 | 26 | 189 | 1.6 | 3.2 | 0.00 | 0.00 | 0.00 | 47 | 1008.6 |
| 20260510001830 | 26 | 221 | 0.0 | 4.8 | 0.00 | 0.00 | 0.00 | 46 | 1008.6 |
| 20260510001329 | 26 | 207 | 3.2 | 6.4 | 0.00 | 0.00 | 0.00 | 45 | 1008.6 |
| 20260510000824 | 26 | 235 | 6.4 | 8.0 | 0.00 | 0.00 | 0.00 | 45 | 1008.5 |
| 20260510000322 | 26 | 209 | 3.2 | 6.4 | 0.00 | 0.00 | 0.00 | 44 | 1008.5 |
| 20260509235819 | 26 | 232 | 6.4 | 6.4 | 0.00 | 0.00 | 0.00 | 44 | 1008.5 |
| 20260509235315 | 26 | 218 | 3.2 | 6.4 | 0.00 | 0.00 | 0.00 | 44 | 1008.4 |
| 20260509234811 | 26 | 226 | 4.8 | 8.0 | 0.00 | 0.00 | 0.00 | 45 | 1008.5 |
| 20260509234308 | 26 | 218 | 4.8 | 6.4 | 0.00 | 0.00 | 0.00 | 45 | 1008.4 |
| 20260509233806 | 26 | 211 | 8.0 | 14.5 | 0.00 | 0.00 | 0.00 | 44 | 1008.4 |
| 20260509233303 | 26 | 226 | 4.8 | 11.3 | 0.00 | 0.00 | 0.00 | 44 | 1008.4 |
| 20260509232759 | 27 | 245 | 3.2 | 4.8 | 0.00 | 0.00 | 0.00 | 43 | 1008.3 |
| 20260509232257 | 27 | 25 | 0.0 | 4.8 | 0.00 | 0.00 | 0.00 | 40 | 1008.5 |
| 20260509231753 | 27 | 248 | 1.6 | 3.2 | 0.00 | 0.00 | 0.00 | 42 | 1008.4 |
| 20260509231250 | 26 | 218 | 1.6 | 6.4 | 0.00 | 0.00 | 0.00 | 43 | 1008.3 |
| 20260509230748 | 26 | 191 | 0.0 | 3.2 | 0.00 | 0.00 | 0.00 | 43 | 1008.4 |
| 20260509230244 | 26 | 239 | 4.8 | 8.0 | 0.00 | 0.00 | 0.00 | 42 | 1008.4 |
| 20260509225740 | 26 | 240 | 8.0 | 11.3 | 0.00 | 0.00 | 0.00 | 43 | 1008.2 |
| 20260509225236 | 26 | 284 | 3.2 | 8.0 | 0.00 | 0.00 | 0.00 | 42 | 1008.2 |
| 20260509224732 | 27 | 13 | 3.2 | 4.8 | 0.00 | 0.00 | 0.00 | 41 | 1008.4 |
| 20260509224229 | 26 | 234 | 1.6 | 4.8 | 0.00 | 0.00 | 0.00 | 41 | 1008.4 |
| 20260509223726 | 27 | 240 | 1.6 | 11.3 | 0.00 | 0.00 | 0.00 | 39 | 1008.2 |
| 20260509223223 | 28 | 246 | 4.8 | 4.8 | 0.00 | 0.00 | 0.00 | 39 | 1008.3 |
| 20260509222720 | 27 | 347 | 0.0 | 4.8 | 0.00 | 0.00 | 0.00 | 38 | 1008.4 |
| 20260509222215 | 27 | 222 | 4.8 | 8.0 | 0.00 | 0.00 | 0.00 | 40 | 1008.5 |
| 20260509221711 | 27 | 233 | 12.9 | 14.5 | 0.00 | 0.00 | 0.00 | 40 | 1008.4 |
| 20260509221207 | 28 | 323 | 3.2 | 8.0 | 0.00 | 0.00 | 0.00 | 39 | 1008.4 |